Regional Weather Roundup
Issued by NWS

Home | Current Version | Previous Version | Text Only | Print | Product List | Glossary On
Versions: 1 2 3 4 5 6 7 8 9 10 11 12 13 14 15 16 17 18 19 20 21 22 23 24 25 26 27 28 29 30 31 32 33 34 35 36 37 38 39 40 41 42 43 44 45 46 47 48 49 50
000
ASUS43 KMKX 312121
RWRWI

WISCONSIN REGIONAL WEATHER ROUNDUP
NATIONAL WEATHER SERVICE MILWAUKEE/SULLIVAN WI
400 PM CDT TUE MAY 31 2016

NOTE: "FAIR" INDICATES FEW OR NO CLOUDS BELOW 12,000 FEET WITH NO
SIGNIFICANT WEATHER AND/OR OBSTRUCTIONS TO VISIBILITY.

WIZ001-002-006>008-014>016-023>028-312200-
NORTHWEST WISCONSIN

CITY           SKY/WX    TMP DP  RH WIND       PRES   REMARKS
SUPERIOR ARPT  CLOUDY    43  42  95 NE16G26   29.91F
ASHLAND        RAIN      49  48  97 N10       29.89F FOG
HAYWARD        LGT RAIN  70  62  76 SW9       29.85F
SIREN          DRIZZLE   72  61  70 SW6       29.84F
CUMBERLAND     CLOUDY    68  63  83 SW9       29.85F
RICE LAKE      RAIN      69  63  82 S5        29.88R
CHETEK         RAIN      66  65  95 W3        29.87R
LADYSMITH      RAIN      70  62  75 SE15G24   29.87R
EAU CLAIRE     CLOUDY    63  58  83 NW18G26   29.84R THUNDER
MENOMONIE      RAIN      63  63  98 NE3       29.87F
NEW RICHMOND   CLOUDY    70  62  75 SW5       29.86S
OSCEOLA        DRIZZLE   70  62  75 S6        29.87F
$$

WIZ003>005-009-010-017-018-312200-
NORTH CENTRAL WISCONSIN

CITY           SKY/WX    TMP DP  RH WIND       PRES   REMARKS
MANITOWISH WTR CLOUDY    72  55  55 SE13G23   29.90
ARBOR VITAE    MOSUNNY   77  58  52 S16G23    29.91F
WOODRUFF       MOSUNNY   77  58  52 S16G23    29.91F
RHINELANDER    MOSUNNY   71  52  50 S15G29    29.96F
EAGLE RIVER      N/A     72  48  43 S10G20    29.94F
LAND O LAKES   MOSUNNY   72  49  43 SE15G25   29.95F
PHILLIPS       CLOUDY    72  59  64 SE14G23   29.87F
TOMAHAWK       CLOUDY    69  56  62 SE10G24   29.94F
MEDFORD        CLOUDY    70  61  73 SE16G28   29.89F
MERRILL        CLOUDY    66  61  82 SE9G18    29.94F
$$

WIZ029-030-035-036-043>047-312200-
CENTRAL WISCONSIN

CITY           SKY/WX    TMP DP  RH WIND       PRES   REMARKS
WAUSAU         CLOUDY    70  58  65 SE15G24   29.93F
MOSINEE        MOSUNNY   66  61  82 SE9       29.96F
MARSHFIELD     CLOUDY    72  58  61 SE21G29   29.90F
STEVENS POINT  CLOUDY    66  58  73 E13       29.96F
WAUPACA        LGT RAIN  73  60  63 E9        29.97F
WAUTOMA        PTSUNNY  N/A N/A N/A SE12      29.96F
WISC RAPIDS    CLOUDY    71  57  61 SE13G20   29.95F
CAMP DOUGLAS   PTSUNNY   75  66  73 SE14G25   29.91F
$$

WIZ011>013-019>022-031-037>040-048>050-312200-
NORTHEAST WISCONSIN

CITY           SKY/WX    TMP DP  RH WIND       PRES   REMARKS
ANTIGO         CLOUDY    68  56  65 SE16G23   29.99F
SHAWANO        CLOUDY    70  55  57 E9        30.00F
OCONTO         CLOUDY    65  51  61 E8        30.02F
STURGEON BAY   MOSUNNY   68  52  56 E7        30.03F
GREEN BAY      CLOUDY    64  57  78 E5        30.02F
MANITOWOC      CLOUDY    62  51  67 VRB5      30.04F
APPLETON       LGT RAIN  66  54  63 SE10G21   30.00F
CLINTONVILLE   CLOUDY    72  55  56 E10       29.99F
OSHKOSH        LGT RAIN  68  60  75 S13G20    30.00F
$$

WIZ032>034-041-042-053>061-312200-
SOUTHWEST WISCONSIN

CITY           SKY/WX    TMP DP  RH WIND       PRES   REMARKS
LA CROSSE      HVY RAIN  72  63  73 SE20G32   29.85R
SPARTA         CLOUDY    71  65  79 SE8       29.89F
VIROQUA        CLOUDY    73  62  69 SE16      29.90F
BOSCOBEL       NOT AVBL
PRAIRIE DU CHI CLOUDY    70  64  80 SE9       29.89S
PLATTEVILLE    CLOUDY    70  64  81 SE13      29.93F
$$

WIZ056-057-062-063-064-067-068-312200-
SOUTH CENTRAL WISCONSIN

CITY           SKY/WX    TMP DP  RH WIND       PRES   REMARKS
REEDSBURG      CLOUDY    71  64  78 SE6       29.93F
BARABOO/DELLS  CLOUDY    69  60  73 S13       29.94F
LONE ROCK      CLOUDY    73  63  70 SE13      29.93F
MINERAL POINT  MOSUNNY   72  63  73 SE13      29.94F
MADISON        CLOUDY    70  60  70 SE15      29.95F
MIDDLETON      CLOUDY    71  63  75 SE12      29.95F
WATERTOWN      DRIZZLE   66  66 100 SE3       30.00F
MONROE         CLOUDY    68  63  83 SE12G17   29.95F
JANESVILLE     LGT RAIN  66  64  94 SE13      29.98F
$$

WIZ051-052-058>065-066-070>072-312200-
SOUTHEAST WISCONSIN

CITY           SKY/WX    TMP DP  RH WIND       PRES   REMARKS
MILWAUKEE      PTSUNNY   72  59  63 N10       30.00F
WAUKESHA       CLOUDY    63  61  94 W6        30.03F
MILWAUKEE/TIMM PTSUNNY   66  61  82 NW6       30.02F
RACINE         CLOUDY    74  57  55 N9        30.02S
BURLINGTON     RAIN      64  62  92 CALM      30.04R
KENOSHA        CLOUDY    69  60  73 W13       30.04R
FOND DU LAC    LGT RAIN  67  62  84 SE10      30.00F
SHEBOYGAN      PTSUNNY   63  54  72 NE3       30.02F
WEST BEND      LGT RAIN  64  59  82 CALM      30.01F
JUNEAU         DRIZZLE   65  62  90 SE10      30.01F
$$

LSZ147-162-312200-
LAKE SUPERIOR

STATION/POSITION TIME  TEMP    WIND        PRES    WAVE
                       AIR SEA DIR/SP/G            HT/PER
                 (UTC) (F)     (DEG/KT/KT) (MB)    (FT/S)
W MID LAKE BUOY  2050   41 38   40/ 16/ 19 1014.8F   3/ 4
DEVILS ISLAND    2100   44      80/ 23/ 26 1013.0F
PORT WING        1920   43      40/ 19/ 24   N/A
SAXON HARBOR     2000           60/ 10/ 11 1011.5
$$

LMZ867-665-643>646-312200-
LAKE MICHIGAN

STATION/POSITION TIME  TEMP    WIND        PRES    WAVE
                       AIR SEA DIR/SP/G            HT/PER
                 (UTC) (F)     (DEG/KT/KT) (MB)    (FT/S)
CHAMBERS ISLAND  2000   56      10/  9/ 10 1017.9F
N MID LAKE BUOY  2050   51 48   30/  8/  8 1017.2F   1/ 4
NORTHPORT PIER   2000   55      80/  7/ 10 1017.9F
SISTER BAY       2020   69     140/  9/ 11   N/A
ALGOMA LAKESHORE 2002           80/ 14/ 17   N/A
KEWAUNEE LAKESHO 2000   53      20/  8/ 13 1017.0R
SHEBOYGAN LAKESH 2100   49      10/  9/  9 1017.0F
PORT WASHINGTON  2040   55      50/  6/  8 1017.3F
S MID LAKE BUOY  2050   61 56   80/  6/  6 1014.5F   0
KENOSHA   LAKESH 2100   67     350/  4/  6 1015.9R
$$

TC  - TEMPERATURE IN CELSIUS
VSB - VISIBILITY IN STATUTE MILES
WCI - WIND CHILL INDEX
HX  - HEAT INDEX





USA.gov is the U.S. government's official web portal to all federal, state and local government web resources and services.